Weather History for New Bedford, MA

Change the Weather History Date:

Tuesday, December 4, 2012

  Actual Average Record
Temperature  
Mean Temperature 42 °F -  
Max Temperature 55 °F 44 °F 70 °F (1998)
Min Temperature 30 °F 31 °F 10 °F (1989)
Degree Days  
Heating Degree Days 22    
Moisture  
Dew Point 40 °F    
Average Humidity 92    
Maximum Humidity 100    
Minimum Humidity 80    
Precipitation  
Precipitation 0.01 in - - ()
Sea Level Pressure  
Sea Level Pressure 30.25 in    
Wind  
Wind Speed 3 mph (South)    
Max Wind Speed 16 mph    
Max Gust Speed -    
Visibility 4 miles    
Events Fog , Rain    
Averages and records for this station are not official NWS values.
T = Trace of Precipitation, MM = Missing Value Source: NWS Daily Summary

Daily Weather History Graph

Daily Weather History Graph

Search for Another Location

Airport:

Trip Planner

Search our weather history database for the weather conditions in past years. The results will help you decide how hot, cold, wet, or windy it might be!

Date:

Astronomy

Dec. 04, 2012 Rise Set
Actual Time 6:54 AM EST 4:13 PM EST
Civil Twilight 6:23 AM EST 4:44 PM EST
Nautical Twilight 5:49 AM EST 5:19 PM EST
Astronomical Twilight 5:15 AM EST 5:52 PM EST
Moon 10:01 PM EST (12/4) 10:44 AM EST (12/4)
Length of Visible Light 10h 21m
Length of Day
9h 18m
Waning Gibbous, 69% of the Moon is Illuminated
Dec 4
Waning Gibbous
Dec 6
Last Quarter
Dec 13
New
Dec 20
First Quarter
Dec 28
Full

Hourly Weather History & Observations

Time (EST) Temp. Windchill Dew Point Humidity Pressure Visibility Wind Dir Wind Speed Gust Speed Precip Events Conditions
12:41 AM 30.2 °F - 30.2 °F 100% 30.29 in 1.8 mi Calm Calm - N/A   Clear
12:53 AM 32.0 °F - 30.2 °F 93% 30.29 in 3.0 mi Calm Calm - N/A   Clear
1:10 AM 30.2 °F - 28.4 °F 93% 30.29 in 1.8 mi Calm Calm - N/A   Clear
1:24 AM 32.0 °F - 30.2 °F 93% 30.28 in 3.0 mi Calm Calm - N/A   Clear
1:53 AM 30.9 °F - 30.0 °F 96% 30.28 in 5.0 mi Calm Calm - N/A   Clear
2:39 AM 30.2 °F - 28.4 °F 93% 30.29 in 1.8 mi Calm Calm - N/A   Clear
2:42 AM 30.2 °F - 28.4 °F 93% 30.29 in 1.0 mi Calm Calm - N/A   Mist
2:53 AM 30.0 °F - 28.9 °F 96% 30.29 in 4.0 mi Calm Calm - N/A   Mostly Cloudy
3:15 AM 30.2 °F - 30.2 °F 100% 30.28 in 1.8 mi Calm Calm - N/A   Overcast
3:20 AM 30.2 °F - 30.2 °F 100% 30.29 in 0.2 mi Calm Calm - N/A Fog Light Freezing Fog
3:39 AM 32.0 °F - 30.2 °F 93% 30.29 in 0.2 mi Calm Calm - N/A Fog Fog
3:53 AM 30.9 °F - 28.9 °F 92% 30.29 in 0.2 mi Calm Calm - N/A Fog Light Freezing Fog
4:53 AM 32.0 °F - 30.9 °F 96% 30.29 in 0.2 mi Calm Calm - N/A Fog Fog
5:53 AM 32.0 °F - 32.0 °F 100% 30.31 in 0.2 mi Calm Calm - N/A Fog Fog
6:53 AM 33.1 °F - 33.1 °F 100% 30.32 in 0.2 mi Calm Calm - N/A Fog Fog
7:02 AM 33.8 °F - 33.8 °F 100% 30.31 in 0.2 mi Calm Calm - N/A Fog Fog
7:10 AM 33.8 °F - 32.0 °F 93% 30.32 in 0.2 mi Calm Calm - N/A Fog Fog
7:53 AM 36.0 °F 32.1 °F 36.0 °F 100% 30.33 in 0.2 mi WNW 4.6 mph - N/A Fog Fog
8:53 AM 42.1 °F - 41.0 °F 96% 30.31 in 0.5 mi Calm Calm - N/A   Overcast
9:00 AM 44.6 °F - 42.8 °F 93% 30.31 in 1.0 mi Calm Calm - N/A   Overcast
9:14 AM 46.4 °F 44.3 °F 44.6 °F 93% 30.31 in 3.0 mi SSE 4.6 mph - N/A   Overcast
9:53 AM 48.9 °F - 48.0 °F 97% 30.31 in 5.0 mi SSE 5.8 mph - N/A   Overcast
10:53 AM 53.1 °F - 48.9 °F 86% 30.30 in 6.0 mi SSW 5.8 mph - N/A   Overcast
11:53 AM 54.0 °F - 50.0 °F 86% 30.26 in 8.0 mi South 9.2 mph - 0.00 in   Overcast
12:53 PM 55.0 °F - 48.9 °F 80% 30.24 in 10.0 mi South 10.4 mph - N/A   Overcast
1:53 PM 55.0 °F - 48.9 °F 80% 30.22 in 10.0 mi SSW 12.7 mph - N/A   Overcast
2:14 PM 55.4 °F - 50.0 °F 82% 30.21 in 8.0 mi SSW 11.5 mph - N/A   Overcast
2:53 PM 54.0 °F - 51.1 °F 90% 30.21 in 6.0 mi South 9.2 mph - 0.00 in Rain Light Rain
3:26 PM 53.6 °F - 51.8 °F 94% 30.20 in 6.0 mi South 8.1 mph - 0.00 in Rain Light Rain
3:53 PM 54.0 °F - 50.0 °F 86% 30.20 in 6.0 mi South 9.2 mph - 0.00 in   Overcast
4:53 PM 52.0 °F - 48.9 °F 89% 30.19 in 7.0 mi South 5.8 mph - N/A   Scattered Clouds
5:53 PM 52.0 °F - 48.0 °F 86% 30.17 in 8.0 mi SSW 5.8 mph - N/A   Scattered Clouds
6:53 PM 54.0 °F - 50.0 °F 86% 30.16 in 9.0 mi South 9.2 mph - N/A   Mostly Cloudy
7:53 PM 53.1 °F - 50.0 °F 89% 30.13 in 7.0 mi South 5.8 mph - N/A   Scattered Clouds
8:53 PM 54.0 °F - 51.1 °F 90% 30.11 in 7.0 mi South 11.5 mph - N/A   Partly Cloudy
9:53 PM 55.0 °F - 52.0 °F 89% 30.07 in 7.0 mi South 10.4 mph - N/A   Partly Cloudy
10:53 PM 55.9 °F - 52.0 °F 87% 30.05 in 8.0 mi South 11.5 mph - 0.01 in   Scattered Clouds
11:53 PM 55.9 °F - 53.1 °F 90% 30.03 in 7.0 mi South 16.1 mph - N/A   Clear